Location: Tierz
(42.1336°N, 0.3549°W)
Time: 15:53:30
(UTC+00:00)

Cosmos 2278 - Pass Details

Date: 29 October 2020
Orbit: 842 x 851 km, 71.1° (Epoch: 24 November)

Event Time Altitude Azimuth Distance (km) Brightness Sun altitude
Rises 18:01:19 0° 173° (S) 3,396 6.9 -12.2°
Reaches altitude 10° 18:04:00 10° 163° (SSE) 2,464 6.0 -12.7°
Maximum altitude 18:08:52 30° 103° (ESE) 1,463 4.4 -13.6°
Enters shadow 18:12:45 15° 50° (NE) 2,161 5.3 -14.3°
